Weather History for Yuma MCAS, AZ

Change the Weather History Date:

Tuesday, April 15, 2014

  Actual Average Record
Temperature  
Mean Temperature 77 °F 73 °F  
Max Temperature 94 °F 86 °F 103 °F (1962)
Min Temperature 60 °F 59 °F 43 °F (1921)
Degree Days  
Heating Degree Days 0 0  
Month to date heating degree days 5 12  
Since 1 July heating degree days 370 685  
Cooling Degree Days 12 8  
Month to date cooling degree days 131 100  
Year to date cooling degree days 430 253  
Growing Degree Days 26 (Base 50)    
Moisture  
Dew Point 16 °F    
Average Humidity 14    
Maximum Humidity 25    
Minimum Humidity 3    
Precipitation  
Precipitation 0.00 in 0.00 in 0.19 in (1988)
Month to date precipitation 0.00 0.10  
Year to date precipitation 0.07 1.19  
Sea Level Pressure  
Sea Level Pressure 29.83 in    
Wind  
Wind Speed 4 mph (North)    
Max Wind Speed 10 mph    
Max Gust Speed 13 mph    
Visibility 10 miles    
Events      
T = Trace of Precipitation, MM = Missing Value Source: NWS Daily Summary

Daily Weather History Graph

Daily Weather History Graph

Search for Another Location

Airport:

Trip Planner

Search our weather history database for the weather conditions in past years. The results will help you decide how hot, cold, wet, or windy it might be!

Date:

Astronomy

Apr. 15, 2014 Rise Set
Actual Time 6:08 AM MST 7:08 PM MST
Civil Twilight 5:43 AM MST 7:33 PM MST
Nautical Twilight 5:13 AM MST 8:03 PM MST
Astronomical Twilight 4:42 AM MST 8:34 PM MST
Moon 7:51 PM MST (4/15) 6:20 AM MST (4/15)
Length of Visible Light 13h 50m
Length of Day
12h 59m
Full, 100% of the Moon is Illuminated
Apr 15
Full
Apr 22
Last Quarter
Apr 28
New
May 6
First Quarter
May 14
Full

Hourly Weather History & Observations

Time (MST) Temp. Dew Point Humidity Pressure Visibility Wind Dir Wind Speed Gust Speed Precip Events Conditions
12:57 AM 64.9 °F 23.0 °F 20% 29.96 in 10.0 mi Calm Calm - N/A   Clear
1:57 AM 61.0 °F 24.1 °F 24% 29.93 in 10.0 mi Calm Calm - N/A   Clear
2:57 AM 61.0 °F 25.0 °F 25% 29.92 in 10.0 mi Calm Calm - N/A   Clear
3:57 AM 62.1 °F 24.1 °F 23% 29.91 in 10.0 mi NE 4.6 mph - N/A   Clear
4:57 AM 61.0 °F 21.0 °F 21% 29.90 in 10.0 mi Calm Calm - N/A   Clear
5:57 AM 61.0 °F 21.0 °F 21% 29.90 in 10.0 mi ENE 3.5 mph - N/A   Scattered Clouds
6:57 AM 62.1 °F 21.9 °F 21% 29.91 in 10.0 mi NE 3.5 mph - N/A   Scattered Clouds
7:57 AM 71.1 °F 15.1 °F 12% 29.91 in 10.0 mi ENE 6.9 mph - N/A   Scattered Clouds
8:57 AM 75.0 °F 12.0 °F 9% 29.91 in 10.0 mi NNE 6.9 mph - N/A   Scattered Clouds
9:57 AM 80.1 °F 17.1 °F 9% 29.90 in 10.0 mi NNE 6.9 mph - N/A   Scattered Clouds
10:57 AM 86.0 °F 10.9 °F 6% 29.89 in 10.0 mi North 6.9 mph - N/A   Scattered Clouds
11:57 AM 89.1 °F 7.0 °F 5% 29.88 in 10.0 mi Variable 3.5 mph - N/A   Scattered Clouds
12:57 PM 89.1 °F 3.9 °F 4% 29.84 in 10.0 mi ESE 4.6 mph - N/A   Partly Cloudy
1:57 PM 91.9 °F 3.9 °F 4% 29.81 in 10.0 mi North 5.8 mph - N/A   Partly Cloudy
2:57 PM 91.9 °F -2.0 °F 4% 29.78 in 10.0 mi Calm Calm - N/A   Partly Cloudy
3:57 PM 91.9 °F -0.9 °F 4% 29.75 in 10.0 mi Variable 3.5 mph - N/A   Partly Cloudy
4:57 PM 91.9 °F 1.9 °F 4% 29.73 in 10.0 mi Calm Calm - N/A   Partly Cloudy
5:57 PM 91.0 °F 12.0 °F 5% 29.71 in 10.0 mi SW 5.8 mph - N/A   Partly Cloudy
6:57 PM 87.1 °F 19.9 °F 8% 29.70 in 10.0 mi WSW 5.8 mph - N/A   Partly Cloudy
7:57 PM 82.9 °F 21.0 °F 10% 29.69 in 10.0 mi West 5.8 mph - N/A   Partly Cloudy
8:57 PM 81.0 °F 23.0 °F 12% 29.71 in 10.0 mi WSW 5.8 mph - N/A   Clear
9:57 PM 78.1 °F 27.0 °F 15% 29.73 in 10.0 mi Calm Calm - N/A   Clear
10:57 PM 73.9 °F 28.9 °F 19% 29.72 in 10.0 mi Calm Calm - N/A   Clear
11:57 PM 73.9 °F 27.0 °F 18% 29.73 in 10.0 mi West 5.8 mph - N/A   Clear